Theta_e
326 327 326 326 318 320 320 320 320 320 319 319 320 321 321 322 320 320 319 313 310 310 315 314 317 314 313 312 312 314 315 315 315 315 316 315 316 317 316 316 315 315 316
325 326 326 323 317 320 320 320 320 320 319 319 319 318 319 320 320 319 318 316 311 313 315 312 315 314 313 312 313 314 314 314 314 314 315 315 315 316 316 317 316 316 316
324 326 326 320 318 320 320 320 320 320 319 320 319 319 318 318 318 317 316 314 311 313 312 314 314 314 313 314 314 314 314 314 315 316 317 317 318 318 316 316 316 317 317
324 325 325 318 318 320 320 320 320 320 319 319 319 318 318 318 317 316 315 314 313 311 312 313 312 314 313 314 314 315 314 314 316 317 318 317 317 317 317 317 318 317 317
323 324 324 318 318 319 320 320 320 320 319 319 319 319 318 318 316 316 316 315 315 314 312 314 314 314 313 313 314 315 315 315 315 316 317 317 318 317 317 317 318 317 317
322 322 322 321 318 319 319 320 319 319 319 318 317 317 316 316 317 317 317 316 315 315 315 314 314 315 314 314 314 314 314 314 314 317 315 315 317 315 314 315 317 317 314
323 324 324 323 323 319 319 319 319 319 318 318 317 317 317 317 316 316 317 317 316 315 315 316 315 315 315 315 314 314 314 315 316 315 313 315 314 315 317 316 316 315 309
322 323 324 323 322 322 321 319 319 319 318 318 317 317 317 317 317 316 315 314 315 315 316 316 315 315 316 316 315 314 315 316 315 313 313 313 314 315 315 313 312 309 303
321 322 321 321 321 322 322 321 320 319 318 317 317 317 317 317 317 318 317 315 314 314 314 314 313 313 312 313 315 316 315 314 313 313 313 313 313 311 310 306 301 298 296
319 319 319 320 320 320 320 320 321 321 320 319 318 318 317 317 317 317 317 317 317 317 317 316 314 314 315 315 313 313 313 312 311 310 307 302 299 298 296 297 296 295 294
313 314 317 320 320 320 319 319 319 320 320 320 319 319 318 318 318 317 318 317 317 317 317 316 316 315 314 311 312 311 310 307 298 296 296 295 293 293 294 293 292 292 292
310 311 312 314 315 316 317 318 320 319 319 320 319 318 317 316 316 317 317 316 314 313 312 310 310 312 308 305 302 298 297 294 292 292 291 290 290 291 291 290 288 283 281
307 309 309 310 311 312 313 314 315 315 315 315 313 311 309 308 309 309 311 312 310 308 306 305 302 299 299 297 295 294 292 292 291 291 290 289 288 284 281 279 279 279 279
302 303 303 304 304 305 306 307 307 307 306 305 304 304 302 302 302 302 303 302 303 305 300 297 296 295 294 290 288 287 288 289 290 289 288 285 281 279 280 279 278 277 277
299 300 300 299 299 300 300 299 300 298 300 301 299 299 298 298 296 296 299 298 295 295 293 291 289 289 288 288 288 288 287 287 286 282 280 279 279 278 277 277 277 276 277
297 297 296 295 294 294 293 292 292 294 295 295 295 296 293 292 293 293 293 292 292 291 291 290 289 289 289 289 289 289 287 284 281 279 279 278 277 277 277 276 276 276 276
297 296 294 292 292 292 291 290 290 289 290 289 289 290 290 290 290 290 290 290 290 290 291 289 288 288 287 286 283 279 278 278 278 277 277 276 276 276 276 276 275 275 275
295 295 295 292 291 291 291 290 290 290 290 288 287 287 287 288 288 289 289 289 289 289 289 287 285 281 279 278 278 278 277 276 276 276 276 276 275 275 275 274 274 274 274
293 293 293 292 291 291 290 290 289 288 288 287 286 288 287 288 288 287 287 289 288 285 281 280 278 278 277 277 276 276 276 275 275 275 275 274 274 274 274 274 274 274 274
291 290 290 290 289 288 288 288 288 287 287 287 287 286 285 286 286 285 284 281 280 278 278 277 276 276 276 275 275 275 274 274 274 274 274 274 274 274 274 274 274 274 274
288 288 288 288 288 287 287 288 287 287 287 286 286 284 283 282 280 279 278 277 277 276 276 275 275 275 274 274 274 274 274 274 274 273 273 273 273 273 273 273 273 273 273
286 286 286 286 286 286 286 286 285 285 285 283 279 277 277 278 278 277 276 276 275 275 275 274 274 274 274 274 274 273 273 273 273 273 273 272 272 272 272 272 272 272 273
285 285 285 285 285 284 284 283 281 279 278 277 276 276 276 276 276 275 275 275 274 274 274 274 274 273 273 273 273 273 273 272 272 272 272 272 272 272 272 272 272 272 272
283 283 284 283 283 282 280 278 277 276 276 275 275 275 274 274 274 274 274 273 273 273 273 273 272 272 272 272 272 272 272 272 272 271 271 271 271 271 271 271 271 271 271
282 281 280 279 278 277 276 276 275 275 275 274 274 274 274 273 273 273 272 272 272 272 272 272 272 272 272 272 272 272 271 271 271 271 270 270 270 271 271 270 270 270 271
277 277 277 276 276 275 275 274 274 274 274 273 273 273 272 272 272 272 272 272 271 271 271 271 271 272 271 271 271 271 271 270 270 270 270 270 270 270 270 270 270 270 270
Wind_Speed
37 36 29 22 21 20 19 19 18 16 14 16 18 19 22 31 36 45 49 57 53 51 52 48 44 34 34 35 34 33 29 31 32 29 33 24 23 22 23 24 25 26 28
35 34 26 22 22 22 21 20 18 16 11 11 15 16 16 21 28 37 45 48 57 53 50 49 49 39 38 35 37 36 33 31 31 32 33 31 29 34 28 29 28 30 31
31 30 24 23 23 22 22 21 18 16 13 11 11 14 14 16 23 33 38 42 53 52 47 53 49 39 42 34 30 31 31 32 32 33 33 30 31 29 32 35 36 34 33
27 25 21 22 22 21 21 21 20 19 18 15 14 14 16 17 22 29 35 35 37 47 51 50 45 41 44 41 36 32 29 32 33 33 36 36 35 32 32 35 35 35 35
23 20 18 19 21 20 20 21 21 22 20 19 18 18 17 21 18 32 36 41 44 46 49 43 46 44 39 41 40 38 36 30 34 36 37 42 38 37 39 40 36 35 35
18 15 11 10 19 20 19 19 21 22 24 22 21 19 19 22 26 29 35 43 45 45 44 43 44 44 43 42 45 42 39 38 41 36 34 37 38 39 42 44 47 36 36
12 10 9 7 7 16 18 19 20 21 22 25 24 22 22 20 17 22 27 33 38 43 45 41 42 47 48 49 48 47 45 41 43 37 39 41 44 46 45 36 37 39 33
10 6 2 7 7 8 10 19 19 19 21 22 24 24 24 24 22 22 22 27 30 32 34 35 35 39 37 42 42 46 45 44 43 43 43 44 44 42 42 41 35 32 26
16 7 16 13 13 14 15 13 14 19 20 23 23 23 25 25 23 24 26 29 31 33 33 35 35 36 38 39 41 43 44 46 49 50 50 50 46 42 37 25 19 16 14
14 14 12 14 15 16 18 20 16 17 20 18 23 26 27 26 27 26 26 29 32 35 38 39 40 41 42 42 43 46 48 48 45 41 34 23 16 14 13 13 13 11 10
8 4 3 7 10 12 14 17 21 23 24 27 28 28 28 29 29 29 29 32 34 38 39 39 40 42 44 42 43 43 43 39 24 17 16 17 16 13 14 11 9 4 2
9 5 2 2 5 7 9 12 14 21 24 27 27 28 26 25 26 29 29 30 34 35 32 29 30 34 31 26 24 22 20 21 19 18 16 15 12 10 7 7 8 7 6
14 12 9 5 3 1 1 3 5 10 16 18 16 15 11 8 9 9 12 13 10 16 21 20 16 11 11 13 10 16 20 19 17 15 14 9 9 11 11 10 10 8 9
19 17 16 14 12 11 10 9 8 8 9 10 9 9 9 8 8 5 5 7 7 8 15 16 16 18 20 26 27 23 19 16 13 11 10 10 11 11 9 8 8 9 10
19 19 18 19 19 19 18 17 15 16 11 12 13 13 12 13 13 12 11 14 20 23 24 26 28 30 29 25 22 20 16 12 11 13 12 12 11 11 11 10 10 9 9
19 19 18 19 20 23 24 26 25 21 19 18 16 14 21 20 15 13 16 20 22 24 26 27 27 25 23 20 16 14 12 12 11 11 11 11 11 10 10 10 9 7 8
18 17 17 18 20 23 25 26 30 28 29 29 28 26 25 24 23 24 23 26 24 21 24 25 23 19 18 16 15 15 16 15 13 12 12 12 11 10 9 9 8 8 7
16 15 15 18 20 22 24 27 30 31 32 32 30 29 27 26 24 22 19 19 22 19 19 18 17 17 17 17 16 15 14 14 12 11 10 11 10 10 9 8 8 7 7
12 15 16 17 19 21 24 26 27 29 30 29 25 22 20 18 18 19 16 13 14 15 16 18 17 17 16 15 14 13 12 11 11 11 10 10 9 8 7 7 6 5 5
12 14 16 18 19 20 22 23 24 24 23 21 19 19 15 13 13 14 13 13 14 16 16 16 16 15 14 12 12 11 10 10 9 9 8 8 7 6 6 5 4 4 6
13 13 14 16 16 16 17 17 17 16 16 15 15 15 13 11 15 16 16 16 16 15 14 13 13 12 11 10 9 8 8 7 7 6 6 5 5 4 4 4 4 5 7
12 14 14 15 15 15 14 14 13 13 13 13 16 15 12 12 14 15 14 13 13 12 12 10 9 8 8 7 6 5 5 4 4 3 3 2 2 2 3 4 5 7 8
11 11 12 13 12 12 12 13 12 12 13 14 15 15 13 12 13 12 12 11 11 10 9 8 7 6 5 4 3 3 2 1 1 0 0 1 2 3 4 6 7 8 9
9 10 10 11 10 10 11 12 13 13 13 13 13 12 11 11 11 10 10 9 8 7 7 6 5 4 3 3 2 2 2 2 3 3 4 4 5 6 6 7 8 8 10
7 7 8 9 9 9 10 12 12 12 12 11 10 9 9 9 8 8 7 7 6 5 4 4 3 3 3 4 4 5 5 5 5 5 6 7 8 8 8 8 9 10 11
8 8 9 9 10 10 10 10 10 10 10 9 9 8 7 7 6 5 4 3 3 3 3 3 4 4 5 5 6 6 6 6 7 7 8 8 9 9 10 10 11 11 12
Wind_Direction
216 210 210 215 213 209 210 206 204 205 194 196 196 203 209 221 221 219 216 206 204 207 210 207 221 226 209 221 222 237 237 240 244 260 244 275 263 264 268 285 284 281 279
216 207 207 211 207 208 208 208 205 204 196 189 184 188 202 221 222 221 220 217 205 209 206 212 218 211 220 230 226 238 239 239 244 255 248 260 266 260 273 284 286 284 280
211 203 206 206 205 210 210 211 206 207 198 194 193 193 192 209 223 226 221 214 204 210 212 215 221 225 222 221 231 238 241 241 253 257 260 266 266 262 257 265 275 278 278
203 200 205 203 204 210 212 214 211 204 202 201 211 214 212 215 220 220 214 208 208 207 212 220 223 223 222 222 237 245 247 251 258 263 260 267 273 269 269 271 273 275 279
202 199 207 202 203 209 212 215 214 211 208 208 212 218 227 219 221 217 213 207 209 213 215 224 228 226 225 232 236 240 249 259 271 267 266 262 266 271 274 277 275 277 275
204 202 205 202 206 210 212 216 219 215 215 216 220 223 220 222 229 218 220 213 215 217 224 230 231 227 231 236 240 250 261 267 269 266 275 278 278 281 283 284 280 271 258
203 194 199 208 223 219 217 220 223 223 222 223 225 228 229 231 231 225 227 230 229 226 232 243 239 235 244 248 249 257 265 265 266 266 272 270 277 278 274 265 265 262 252
183 173 202 231 232 241 234 229 230 229 230 232 234 236 239 240 236 234 234 234 238 241 242 246 250 251 251 251 256 257 260 263 263 266 266 267 267 265 263 265 261 255 245
162 160 214 216 232 249 257 246 238 234 235 238 242 244 249 250 247 241 236 237 241 244 247 249 253 257 259 258 258 259 261 264 267 269 271 272 270 265 259 247 240 225 204
155 189 203 196 217 228 231 241 258 253 247 245 242 242 244 244 244 243 241 241 244 248 249 252 253 254 258 257 257 257 258 258 259 260 259 250 232 218 190 193 192 190 195
85 112 186 233 248 252 246 236 231 241 251 247 244 244 246 246 246 245 240 237 242 246 249 251 250 249 248 251 249 245 242 234 217 202 182 166 155 151 152 149 146 148 188
72 55 7 285 261 259 256 247 234 228 231 233 234 235 237 242 248 251 252 247 242 246 247 245 248 257 256 250 240 230 211 179 155 147 138 128 125 124 108 94 77 79 95
70 74 73 73 79 60 212 219 203 205 213 208 207 210 214 231 253 273 279 272 253 229 224 228 232 217 199 186 183 175 162 155 145 130 119 107 87 72 79 91 95 89 83
64 64 68 72 80 88 96 99 112 126 147 153 156 144 132 125 118 117 130 152 163 185 190 162 155 146 141 136 134 130 127 125 122 113 102 89 97 104 97 89 92 82 73
70 69 69 72 75 79 83 86 93 94 107 125 123 120 120 114 107 113 114 133 141 139 140 136 133 129 125 126 127 125 123 118 93 93 110 115 108 104 108 104 91 79 76
73 76 80 81 82 86 89 92 87 91 96 94 97 103 100 94 99 104 112 124 120 124 126 125 122 123 125 125 126 122 109 109 121 126 122 117 114 110 102 95 89 84 79
65 72 79 85 90 96 101 102 101 100 99 93 89 88 90 95 102 107 112 115 116 130 124 121 121 122 123 124 122 126 129 125 120 120 119 117 115 111 102 96 91 86 72
81 77 79 90 94 98 102 105 110 111 107 103 104 106 107 108 108 108 111 117 124 126 122 123 124 123 122 124 124 123 120 117 119 118 119 118 115 106 96 88 85 69 53
89 98 101 103 103 105 108 111 110 108 106 106 106 105 104 106 110 111 119 131 127 123 120 120 119 121 122 121 120 120 117 118 119 116 113 107 101 93 86 79 71 56 30
96 103 111 114 116 116 117 116 113 109 109 109 108 103 103 107 113 115 122 118 118 116 116 117 117 116 114 115 116 113 114 111 107 106 106 106 101 85 73 65 49 27 14
106 114 120 121 122 121 117 115 114 117 118 119 114 108 109 124 120 121 121 119 116 115 113 112 112 111 110 108 107 107 109 110 112 113 111 97 81 67 45 36 22 1 359
112 121 125 125 124 123 122 120 121 121 116 116 115 112 117 121 119 119 117 116 114 113 112 109 108 107 107 105 107 111 108 108 110 108 103 87 57 27 10 4 354 354 346
116 124 126 125 126 125 124 120 119 118 119 120 120 122 124 121 120 119 117 115 112 110 106 103 101 96 96 100 103 96 87 85 78 107 315 315 315 323 337 344 340 336 333
118 122 123 120 120 123 123 122 122 122 121 120 120 120 119 115 114 112 111 109 105 102 99 97 89 80 62 45 21 352 330 315 306 291 285 284 289 299 308 316 318 316 318
111 117 122 123 122 122 122 121 120 120 119 118 118 116 113 112 111 107 103 100 93 86 74 58 42 24 2 341 327 313 301 291 280 280 279 281 281 285 291 296 301 305 308
114 116 119 118 118 117 116 117 119 119 119 120 119 116 113 108 108 105 94 81 71 51 27 13 358 348 333 320 312 304 297 289 283 279 280 279 280 280 282 286 292 296 299